Time,TemperatureF,DewpointF,PressureIn,WindDirection,WindDirectionDegrees,WindSpeedMPH,WindSpeedGustMPH,Humidity,HourlyPrecipIn,Conditions,Clouds,dailyrainin,SoftwareType,DateUTC
2013-03-21 00:00:00,44.0,-99.9,-100.00,North,-999,-999.0,-999.0,-999,0.00,,,0.64,,2013-03-21 07:00:00,
2013-03-21 00:53:00,44.0,-99.9,-100.00,North,-999,-999.0,-999.0,-999,0.00,,,0.64,,2013-03-21 07:53:00,
2013-03-21 01:00:00,41.0,-99.9,-100.00,North,-999,-999.0,-999.0,-999,0.00,,,0.60,,2013-03-21 08:00:00,
2013-03-21 01:53:00,41.0,-99.9,-100.00,North,-999,-999.0,-999.0,-999,0.00,,,0.60,,2013-03-21 08:53:00,
2013-03-21 02:00:00,42.0,-99.9,-100.00,North,-999,-999.0,-999.0,-999,0.00,,,0.56,,2013-03-21 09:00:00,
2013-03-21 02:53:00,42.0,-99.9,-100.00,North,-999,-999.0,-999.0,-999,0.00,,,0.56,,2013-03-21 09:53:00,
2013-03-21 03:00:00,43.0,-99.9,-100.00,North,-999,-999.0,-999.0,-999,0.00,,,0.52,,2013-03-21 10:00:00,
2013-03-21 03:54:00,43.0,-99.9,-100.00,North,-999,-999.0,-999.0,-999,0.00,,,0.52,,2013-03-21 10:54:00,
2013-03-21 04:00:00,42.0,-99.9,-100.00,North,-999,-999.0,-999.0,-999,0.00,,,0.48,,2013-03-21 11:00:00,
2013-03-21 04:53:00,42.0,-99.9,-100.00,North,-999,-999.0,-999.0,-999,0.00,,,0.48,,2013-03-21 11:53:00,
2013-03-21 05:00:00,38.0,-99.9,-100.00,North,-999,-999.0,-999.0,-999,0.00,,,0.44,,2013-03-21 12:00:00,
2013-03-21 05:53:00,38.0,-99.9,-100.00,North,-999,-999.0,-999.0,-999,0.00,,,0.44,,2013-03-21 12:53:00,
2013-03-21 06:00:00,39.0,-99.9,-100.00,North,-999,-999.0,-999.0,-999,0.00,,,0.32,,2013-03-21 13:00:00,
2013-03-21 06:53:00,39.0,-99.9,-100.00,North,-999,-999.0,-999.0,-999,0.00,,,0.32,,2013-03-21 13:53:00,
2013-03-21 07:00:00,38.0,-99.9,-100.00,North,-999,-999.0,-999.0,-999,0.00,,,0.24,,2013-03-21 14:00:00,
2013-03-21 07:53:00,38.0,-99.9,-100.00,North,-999,-999.0,-999.0,-999,0.00,,,0.24,,2013-03-21 14:53:00,
2013-03-21 08:00:00,37.0,-99.9,-100.00,North,-999,-999.0,-999.0,-999,0.00,,,0.12,,2013-03-21 15:00:00,
2013-03-21 08:53:00,37.0,-99.9,-100.00,North,-999,-999.0,-999.0,-999,0.00,,,0.12,,2013-03-21 15:53:00,
2013-03-21 09:00:00,40.0,-99.9,-100.00,North,-999,-999.0,-999.0,-999,0.00,,,0.00,,2013-03-21 16:00:00,
2013-03-21 09:53:00,40.0,-99.9,-100.00,North,-999,-999.0,-999.0,-999,0.00,,,0.00,,2013-03-21 16:53:00,
2013-03-21 10:00:00,46.0,-99.9,-100.00,North,-999,-999.0,-999.0,-999,0.00,,,0.00,,2013-03-21 17:00:00,
2013-03-21 10:54:00,46.0,-99.9,-100.00,North,-999,-999.0,-999.0,-999,0.00,,,0.00,,2013-03-21 17:54:00,
2013-03-21 11:00:00,47.0,-99.9,-100.00,North,-999,-999.0,-999.0,-999,0.00,,,-99.99,,2013-03-21 18:00:00,
2013-03-21 11:53:00,47.0,-99.9,-100.00,North,-999,-999.0,-999.0,-999,0.00,,,-99.99,,2013-03-21 18:53:00,
2013-03-21 12:00:00,50.0,-99.9,-100.00,North,-999,-999.0,-999.0,-999,0.00,,,0.00,,2013-03-21 19:00:00,
2013-03-21 12:53:00,50.0,-99.9,-100.00,North,-999,-999.0,-999.0,-999,0.00,,,0.00,,2013-03-21 19:53:00,
2013-03-21 13:00:00,53.0,-99.9,-100.00,North,-999,-999.0,-999.0,-999,0.00,,,0.00,,2013-03-21 20:00:00,
2013-03-21 13:54:00,53.0,-99.9,-100.00,North,-999,-999.0,-999.0,-999,0.00,,,0.00,,2013-03-21 20:54:00,
2013-03-21 14:00:00,57.0,-99.9,-100.00,North,-999,-999.0,-999.0,-999,0.00,,,0.00,,2013-03-21 21:00:00,
2013-03-21 14:54:00,57.0,-99.9,-100.00,North,-999,-999.0,-999.0,-999,0.00,,,0.00,,2013-03-21 21:54:00,
2013-03-21 15:00:00,58.0,-99.9,-100.00,North,-999,-999.0,-999.0,-999,0.00,,,0.00,,2013-03-21 22:00:00,
2013-03-21 15:53:00,58.0,-99.9,-100.00,North,-999,-999.0,-999.0,-999,0.00,,,0.00,,2013-03-21 22:53:00,
2013-03-21 16:00:00,57.0,-99.9,-100.00,North,-999,-999.0,-999.0,-999,0.00,,,0.00,,2013-03-21 23:00:00,
2013-03-21 16:53:00,57.0,-99.9,-100.00,North,-999,-999.0,-999.0,-999,0.00,,,0.00,,2013-03-21 23:53:00,
2013-03-21 17:00:00,56.0,-99.9,-100.00,North,-999,-999.0,-999.0,-999,0.00,,,0.00,,2013-03-22 00:00:00,
2013-03-21 17:53:00,56.0,-99.9,-100.00,North,-999,-999.0,-999.0,-999,0.00,,,0.00,,2013-03-22 00:53:00,
2013-03-21 18:00:00,54.0,-99.9,-100.00,North,-999,-999.0,-999.0,-999,0.00,,,0.00,,2013-03-22 01:00:00,
2013-03-21 18:53:00,54.0,-99.9,-100.00,North,-999,-999.0,-999.0,-999,0.00,,,0.00,,2013-03-22 01:53:00,
2013-03-21 19:00:00,49.0,-99.9,-100.00,North,-999,-999.0,-999.0,-999,0.00,,,0.00,,2013-03-22 02:00:00,
2013-03-21 19:53:00,49.0,-99.9,-100.00,North,-999,-999.0,-999.0,-999,0.00,,,0.00,,2013-03-22 02:53:00,
2013-03-21 20:00:00,46.0,-99.9,-100.00,North,-999,-999.0,-999.0,-999,0.00,,,0.00,,2013-03-22 03:00:00,
2013-03-21 20:53:00,46.0,-99.9,-100.00,North,-999,-999.0,-999.0,-999,0.00,,,0.00,,2013-03-22 03:53:00,
2013-03-21 22:00:00,41.0,-99.9,-100.00,North,-999,-999.0,-999.0,-999,0.00,,,0.00,,2013-03-22 05:00:00,
2013-03-21 22:53:00,41.0,-99.9,-100.00,North,-999,-999.0,-999.0,-999,0.00,,,0.00,,2013-03-22 05:53:00,
2013-03-21 23:00:00,40.0,-99.9,-100.00,North,-999,-999.0,-999.0,-999,0.00,,,0.00,,2013-03-22 06:00:00,
2013-03-21 23:52:00,40.0,-99.9,-100.00,North,-999,-999.0,-999.0,-999,0.00,,,0.00,,2013-03-22 06:52:00,